Weather History for Mountain Home, ID

Change the Weather History Date:

Tuesday, February 11, 2014

  Actual Average Record
Temperature  
Mean Temperature 41 °F 34 °F  
Max Temperature 51 °F 43 °F 60 °F (1987)
Min Temperature 31 °F 24 °F -2 °F (1929)
Degree Days  
Heating Degree Days 24 31  
Month to date heating degree days 330 351  
Cooling Degree Days 0 0  
Month to date cooling degree days 0 0  
Moisture  
Dew Point 35 °F    
Average Humidity 91    
Maximum Humidity 100    
Minimum Humidity 55    
Precipitation  
Precipitation T in 0.03 in 0.63 in (1919)
Month to date precipitation 0.10 0.32  
Sea Level Pressure  
Sea Level Pressure 30.18 in    
Wind  
Wind Speed 7 mph (East)    
Max Wind Speed 16 mph    
Max Gust Speed 24 mph    
Visibility 10 miles    
Events Rain    
T = Trace of Precipitation, MM = Missing Value Source: NWS Daily Summary

Daily Weather History Graph

Daily Weather History Graph

Search for Another Location

Airport:

Trip Planner

Search our weather history database for the weather conditions in past years. The results will help you decide how hot, cold, wet, or windy it might be!

Date:

Astronomy

Feb. 11, 2014 Rise Set
Actual Time 7:46 AM MST 6:09 PM MST
Civil Twilight 7:17 AM MST 6:39 PM MST
Nautical Twilight 6:43 AM MST 7:12 PM MST
Astronomical Twilight 6:10 AM MST 7:45 PM MST
Moon 3:32 PM MST (2/11) 5:28 AM MST (2/11)
Length of Visible Light 11h 21m
Length of Day
10h 23m
Waxing Gibbous, 91% of the Moon is Illuminated
Feb 11
Waxing Gibbous
Feb 14
Full
Feb 22
Last Quarter
Mar 1
New
Mar 8
First Quarter

Hourly Weather History & Observations

Time (MST) Temp. Windchill Dew Point Humidity Pressure Visibility Wind Dir Wind Speed Gust Speed Precip Events Conditions
12:08 AM 33.8 °F 29.6 °F 33.8 °F 100% 30.17 in 10.0 mi East 4.6 mph - N/A   Overcast
12:58 AM 34.9 °F 28.3 °F 34.9 °F 100% 30.20 in 10.0 mi ENE 8.1 mph - N/A   Overcast
1:58 AM 34.2 °F 28.2 °F 34.2 °F 100% 30.18 in 10.0 mi East 6.9 mph - N/A   Overcast
2:38 AM 33.8 °F 27.7 °F 33.8 °F 100% 30.14 in 10.0 mi ESE 6.9 mph - N/A   Scattered Clouds
2:58 AM 33.4 °F 29.1 °F 33.4 °F 100% 30.19 in 10.0 mi ESE 4.6 mph - N/A   Clear
3:58 AM 31.8 °F 25.4 °F 31.8 °F 100% 30.18 in 10.0 mi ESE 6.9 mph - N/A   Partly Cloudy
4:23 AM 32.0 °F 26.4 °F 32.0 °F 100% 30.13 in 10.0 mi East 5.8 mph - N/A   Mostly Cloudy
4:58 AM 33.1 °F 26.9 °F 33.1 °F 100% 30.16 in 10.0 mi East 6.9 mph - N/A   Overcast
5:33 AM 32.0 °F 25.6 °F 32.0 °F 100% 30.12 in 10.0 mi East 6.9 mph - N/A   Scattered Clouds
5:58 AM 31.8 °F 26.2 °F 31.8 °F 100% 30.17 in 10.0 mi East 5.8 mph - N/A   Partly Cloudy
6:28 AM 32.0 °F 26.4 °F 32.0 °F 100% 30.12 in 10.0 mi ENE 5.8 mph - N/A   Mostly Cloudy
6:58 AM 32.0 °F 27.5 °F 32.0 °F 100% 30.18 in 10.0 mi East 4.6 mph - N/A   Overcast
7:58 AM 34.2 °F 28.2 °F 34.2 °F 100% 30.21 in 10.0 mi ESE 6.9 mph - N/A   Mostly Cloudy
8:19 AM 33.8 °F 30.8 °F 33.8 °F 100% 30.15 in 10.0 mi East 3.5 mph - N/A Rain Light Rain
8:58 AM 34.0 °F 31.0 °F 34.0 °F 100% 30.23 in 10.0 mi SE 3.5 mph - 0.00 in   Mostly Cloudy
9:58 AM 38.3 °F - 38.3 °F 100% 30.23 in 10.0 mi South 2.3 mph - N/A   Mostly Cloudy
10:58 AM 40.8 °F - 40.8 °F 100% 30.21 in 10.0 mi South 2.3 mph - N/A   Mostly Cloudy
11:58 AM 45.5 °F 43.2 °F 40.5 °F 83% 30.21 in 10.0 mi NW 4.6 mph - N/A   Mostly Cloudy
12:58 PM 49.6 °F - 36.5 °F 61% 30.19 in 10.0 mi WNW 16.1 mph 24.2 mph N/A   Mostly Cloudy
1:58 PM 50.2 °F - 36.0 °F 58% 30.18 in 10.0 mi WNW 13.8 mph 19.6 mph N/A   Mostly Cloudy
2:58 PM 50.0 °F - 35.8 °F 58% 30.18 in 10.0 mi NW 16.1 mph - N/A   Scattered Clouds
3:58 PM 50.2 °F - 34.5 °F 55% 30.18 in 10.0 mi NW 12.7 mph - N/A   Scattered Clouds
4:58 PM 48.7 °F - 35.1 °F 59% 30.18 in 10.0 mi North 11.5 mph - N/A   Scattered Clouds
5:58 PM 46.2 °F 42.2 °F 35.4 °F 66% 30.19 in 10.0 mi North 8.1 mph - N/A   Scattered Clouds
6:58 PM 43.3 °F 38.6 °F 34.3 °F 71% 30.20 in 10.0 mi North 8.1 mph - N/A   Clear
7:58 PM 39.6 °F 37.4 °F 37.0 °F 91% 30.20 in 10.0 mi ESE 3.5 mph - N/A   Scattered Clouds
8:58 PM 35.8 °F 30.9 °F 35.8 °F 100% 30.21 in 10.0 mi South 5.8 mph - N/A   Overcast
9:58 PM 37.8 °F 33.3 °F 37.8 °F 100% 30.21 in 10.0 mi South 5.8 mph - N/A   Overcast
10:03 PM 37.4 °F 33.8 °F 37.4 °F 100% 30.16 in 10.0 mi South 4.6 mph - N/A   Overcast
10:38 PM 37.4 °F 32.8 °F 37.4 °F 100% 30.14 in 10.0 mi SE 5.8 mph - N/A   Overcast
10:58 PM 38.1 °F 34.6 °F 38.1 °F 100% 30.18 in 10.0 mi SE 4.6 mph - N/A   Overcast
11:23 PM 37.4 °F 32.8 °F 37.4 °F 100% 30.14 in 10.0 mi East 5.8 mph - N/A   Mostly Cloudy
11:28 PM 37.4 °F 32.8 °F 37.4 °F 100% 30.13 in 10.0 mi East 5.8 mph - N/A   Mostly Cloudy
11:58 PM 37.8 °F 31.8 °F 37.8 °F 100% 30.16 in 10.0 mi East 8.1 mph - N/A   Mostly Cloudy